This is the latest recevied weather packets stored in our database for station/object ZS1BR-13. If no packets are shown the sender has not sent any weather packets the latest 10 day(s).
| Time | Temp. | Humidity | Pressure | Rain* | Wind** | Luminosity | Snow |
|---|---|---|---|---|---|---|---|
| 1777515356 | 16.11° C | 69% | 1015.7 hPa | 0 mm | - | - | - |
| 1777514748 | 16.11° C | 70% | 1015.8 hPa | 0 mm | - | - | - |
| 1777514141 | 16.11° C | 70% | 1015.9 hPa | 0 mm | - | - | - |
| 1777513534 | 16.11° C | 69% | 1016 hPa | 0 mm | - | - | - |
| 1777512925 | 16.67° C | 69% | 1016.2 hPa | 0 mm | - | - | - |
| 1777511771 | 16.67° C | 69% | 1016.2 hPa | 0 mm | - | - | - |
| 1777511164 | 16.67° C | 69% | 1016.3 hPa | 0 mm | - | - | - |
| 1777510557 | 16.67° C | 69% | 1016.5 hPa | 0 mm | - | - | - |
| 1777509949 | 16.67° C | 70% | 1016.6 hPa | 0 mm | - | - | - |
| 1777509342 | 16.67° C | 70% | 1016.7 hPa | 0 mm | - | - | - |
| 1777508735 | 16.67° C | 70% | 1016.9 hPa | 0 mm | - | - | - |
| 1777508128 | 16.67° C | 70% | 1017 hPa | 0 mm | - | - | - |
| 1777507521 | 16.67° C | 70% | 1017.2 hPa | 0 mm | - | - | - |
| 1777498523 | 17.78° C | 67% | 1018.4 hPa | 0 mm | - | - | - |
| 1777494329 | 17.78° C | 67% | 1018.9 hPa | 0 mm | - | - | - |
| 1777493722 | 17.78° C | 67% | 1019 hPa | 0 mm | - | - | - |
| 1777491350 | 18.33° C | 66% | 1019.3 hPa | 0 mm | - | - | - |
| 1777490743 | 18.33° C | 65% | 1019.3 hPa | 0 mm | - | - | - |
| 1777487764 | 18.33° C | 64% | 1019.8 hPa | 0 mm | - | - | - |
| 1777487156 | 18.89° C | 64% | 1019.8 hPa | 0 mm | - | - | - |
| 1777484176 | 18.89° C | 62% | 1020 hPa | 0 mm | - | - | - |
| 1777481745 | 19.44° C | 61% | 1019.8 hPa | 0 mm | - | - | - |
| 1777481135 | 19.44° C | 61% | 1019.9 hPa | 0 mm | - | - | - |
| 1777479978 | 19.44° C | 60% | 1019.8 hPa | 0 mm | - | - | - |
| 1777476939 | 20° C | 58% | 1020 hPa | 0 mm | - | - | - |
* Rain latest hour (hover to see other rain measurements)
** Current wind speed in m/s (hover to see current wind gust speed)